Meteo Giornale » Osservazioni meteo Gran Bretagna » Stornoway
ore: 02:20 - Osservazioni Meteo Stornoway
Lat. 58° 13' N Lon. 6° 19' W Alt. 9 metri s.l.m.
14 °C
Sereno
Temp. 24 Ore
10 °C
15 °C
Sud/Sud-Ovest
25.9 Km/h
Dew point 12 °C
Umidità 87 %
Visibilità 10 Km
Il sole sorge alle ore 06:25
Il sole tramonta alle ore 20:25
| Data e Ora | Cielo e Fenomeni | T °C | DP °C | Um. % | Pres. hPa | Vis. km | Vento km/h | |
|---|---|---|---|---|---|---|---|---|
| Oggi h: 02:20 | Sereno | 14 | 12 | 87 | 1007 | 10 | S/SO 25.9 | |
| Oggi h: 01:50 | Sereno | 13 | 11 | 87 | 1008 | 10 | S/SO 22.2 | |
| Oggi h: 01:20 | Poco Nuvoloso | 13 | 12 | 93 | 1008 | 10 | S/SO 16.7 | |
| Oggi h: 00:50 | Molto Nuvoloso | 13 | 12 | 93 | 1008 | 10 | S 22.2 | |
| Oggi h: 00:20 | Pioggia | 13 | 12 | 93 | 1009 | 10 | S 22.2 | |
| Ieri h: 23:50 | Poco Nuvoloso | 13 | 12 | 93 | 1009 | 10 | S 22.2 | |
| Ieri h: 23:20 | Nuvoloso | 13 | 12 | 93 | 1009 | 10 | S 22.2 | |
| Ieri h: 22:50 | Poco Nuvoloso | 13 | 12 | 93 | 1009 | 10 | S/SO 27.8 | |
| Ieri h: 22:20 | Molto Nuvoloso | 13 | 11 | 87 | 1010 | 10 | S/SO 24 | |
| Ieri h: 21:50 | Coperto | 13 | 11 | 87 | 1010 | 10 | S 20.3 | |
| Ieri h: 21:20 | Poco Nuvoloso | 12 | 11 | 93 | 1010 | 10 | S/SO 16.7 | |
| Ieri h: 20:50 | Molto Nuvoloso | 12 | 11 | 93 | 1010 | 10 | S/SO 16.7 | |
| Ieri h: 20:20 | Pioggia | 12 | 10 | 87 | 1010 | 10 | S 14.8 | |
| Ieri h: 19:50 | Pioggia | 13 | 10 | 81 | 1010 | 10 | S/SO 14.8 | |
| Ieri h: 19:20 | Pioggia | 13 | 10 | 81 | 1010 | 10 | S/SO 18.5 | |
| Ieri h: 18:50 | Pioggia nelle vicinanze | 14 | 9 | 71 | 1010 | 10 | S/SO 13 | |
| Ieri h: 18:20 | Nuvoloso | 14 | 9 | 71 | 1010 | 10 | SO 13 | |
| Ieri h: 17:50 | Poco Nuvoloso | 14 | 8 | 67 | 1010 | 10 | SO 16.7 | |
| Ieri h: 17:20 | Nuvoloso | 15 | 8 | 62 | 1010 | 10 | O 14.8 | |
| Ieri h: 16:50 | Nuvoloso | 15 | 8 | 62 | 1010 | 10 | O/SO 18.5 | |
| Ieri h: 16:20 | Nuvoloso | 15 | 8 | 62 | 1010 | 10 | O 16.7 | |
| Ieri h: 15:50 | Nuvoloso | 15 | 8 | 62 | 1009 | 10 | O 22.2 | |
| Ieri h: 15:20 | Nuvoloso | 15 | 9 | 67 | 1009 | 10 | O 22.2 | |
| Ieri h: 14:50 | Molto Nuvoloso | 15 | 8 | 62 | 1009 | 10 | O 24 | |
| Ieri h: 14:20 | Molto Nuvoloso | 14 | 9 | 71 | 1009 | 10 | O/NO 22.2 | |
| Ieri h: 13:50 | Molto Nuvoloso | 14 | 8 | 67 | 1008 | 10 | O/NO 24 | |
| Ieri h: 13:20 | Molto Nuvoloso | 14 | 8 | 67 | 1008 | 10 | O/NO 25.9 | |
| Ieri h: 12:50 | Molto Nuvoloso | 14 | 9 | 71 | 1008 | 10 | O 24 | |
| Ieri h: 12:20 | Molto Nuvoloso | 14 | 10 | 76 | 1007 | 10 | O/NO 24 | |
| Ieri h: 11:50 | Pioggia nelle vicinanze | 14 | 11 | 82 | 1007 | 10 | O/NO 27.8 | |
| Ieri h: 11:20 | Pioggia nelle vicinanze | 15 | 12 | 82 | 1006 | 10 | O/NO 31.5 | |
| Ieri h: 10:50 | Pioggia | 14 | 13 | 93 | 1005 | 10 | O/NO 27.8 | |
| Ieri h: 10:20 | Pioggia nelle vicinanze | 15 | 13 | 87 | 1005 | 10 | O 16.7 | |
| Ieri h: 09:50 | Pioggia nelle vicinanze | 14 | 13 | 93 | 1005 | 10 | O 9.3 | |
| Ieri h: 09:20 | Pioggia | 14 | 13 | 93 | 1005 | 10 | O 13 | |
| Ieri h: 08:50 | Pioggia | 14 | 13 | 93 | 1004 | 6 | S/SO 9.3 | |
| Ieri h: 08:20 | Pioggia nelle vicinanze | 14 | 14 | 100 | 1004 | 10 | SO 7.4 | |
| Ieri h: 07:50 | Molto Nuvoloso | 14 | 13 | 93 | 1004 | 10 | N 5.5 | |
| Ieri h: 07:20 | Molto Nuvoloso | 13 | 13 | 100 | 1004 | 10 | N 5.5 | |
| Ieri h: 06:50 | Molto Nuvoloso | 13 | 13 | 100 | 1003 | 10 | SO 7.4 | |
| Ieri h: 06:20 | Molto Nuvoloso | 13 | 13 | 100 | 1003 | 10 | SO 7.4 | |
| Ieri h: 05:50 | Molto Nuvoloso | 13 | 12 | 93 | 1003 | 10 | N 5.5 | |
| Ieri h: 05:20 | Nuvoloso | 12 | 12 | 100 | 1003 | 10 | N 5.5 | |
| Ieri h: 04:50 | Molto Nuvoloso | 12 | 12 | 100 | 1003 | 10 | N 3.7 | |
| Ieri h: 04:20 | Nuvoloso | 12 | 11 | 93 | 1003 | 10 | N 0 | |
| Ieri h: 03:50 | Coperto | 11 | 11 | 100 | 1003 | 10 | N 0 | |
| Ieri h: 03:20 | Coperto | 11 | 11 | 100 | 1003 | 10 | N 3.7 | |
| Ieri h: 02:50 | Nuvoloso | 10 | 10 | 100 | 1003 | 10 | N 0 | |



